Simultaneous Nadir Overpasses (SNOs) Predictions

Prediction of SNOs between TERRA and METOP-C Satellite Orbit:

Table of predicted SNOs for the next 14.0 days since TLE Epoch: 7/20/2019
Index Date (TERRA) Time (TERRA) Lat,Lon (TERRA) SZA (TERRA ) Date (METOP-C) Time (METOP-C) Lat,Lon (METOP-C) SZA (METOP-C ) Distance(km) Time Diff (sec)
1 07/21/2019 07:24:00 81.31, 116.30 63.54 07/21/2019 07:23:07 81.30, 116.25 63.50 1.15 53
2 07/21/2019 08:13:27 -81.31, -76.14 116.47 07/21/2019 08:13:47 -81.30, -76.29 116.48 2.49 20
3 07/24/2019 02:58:16 81.30,-177.51 64.06 07/24/2019 02:57:30 81.30,-177.45 64.05 0.96 46
4 07/24/2019 03:47:42 -81.31, -9.54 115.89 07/24/2019 03:48:09 -81.31, -9.62 115.89 1.55 27
5 07/26/2019 22:32:31 81.31,-110.91 64.69 07/26/2019 22:31:52 81.30,-110.77 64.68 2.35 39
6 07/26/2019 23:21:58 -81.30, 56.70 115.32 07/26/2019 23:22:32 -81.31, 56.66 115.30 0.62 34
7 07/29/2019 18:06:46 81.29, -44.67 65.30 07/29/2019 18:06:14 81.30, -44.48 65.31 3.31 32
8 07/29/2019 18:56:12 -81.31, 123.34 114.64 07/29/2019 18:56:53 -81.31, 123.34 114.62 0.68 41
9 08/01/2019 13:41:01 81.31, 21.97 66.02 08/01/2019 13:40:37 81.30, 21.81 65.99 2.75 24




NCC Satellite Simultaneous Nadir Overpasses (SNOs) Prediction Service
